This demonstration page uses our WeatherBlox Daily Observations layout. Learn more.

Left ArrowRight Arrow

Hourly Observations for November 4, 2015

Temp ( °F °C ) Dew Point ( °F °C ) Humidity (%) Winds ( mph kmh ) Pressure ( in mb ) Visibility ( mi km ) Precip ( " mm )
12:53 am 00:53 Clear 49 9.4 32 0 52 52 Calm 30.17 1022 10 16 0.00 0.00
1:53 am 01:53 Clear 48 8.9 31 -0.6 52 52 Calm 30.17 1022 7 11 0.00 0.00
2:53 am 02:53 Hazy 48 8.9 31 -0.6 52 52 Calm 30.17 1022 6 10 0.00 0.00
3:53 am 03:53 Mostly Clear 48 8.9 31 -0.6 52 52 Calm 30.16 1022 9 14 0.00 0.00
4:46 am 04:46 Hazy 48 8.9 30 -1.1 50 50 Calm 30.18 1022 2 3 0.00 0.00
4:53 am 04:53 Hazy 48 8.9 30 -1.1 50 50 Calm 30.18 1022 1 2 0.00 0.00
4:57 am 04:57 Hazy 47 8.3 30 -1.1 52 52 Calm 30.18 1022 2 3 0.00 0.00
5:08 am 05:08 Hazy 48 8.9 30 -1.1 50 50 Calm 30.18 1022 4 6 0.00 0.00
5:53 am 05:53 Hazy 49 9.4 30 -1.1 48 48 WSW 3 6 30.20 1023 6 10 0.00 0.00
6:53 am 06:53 Mostly Cloudy with Haze 48 8.9 30 -1.1 50 50 Calm 30.20 1023 3 5 0.00 0.00
7:53 am 07:53 Cloudy 53 11.7 30 -1.1 41 41 Calm 30.22 1023 7 11 0.00 0.00
8:53 am 08:53 Cloudy 57 13.9 30 -1.1 36 36 Calm 30.24 1024 9 14 0.00 0.00
9:53 am 09:53 Cloudy 60 15.6 30 -1.1 32 32 Calm 30.23 1024 9 14 0.00 0.00
10:53 am 10:53 Cloudy 64 17.8 30 -1.1 28 28 Calm 30.23 1024 9 14 0.00 0.00
11:53 am 11:53 Cloudy 67 19.4 30 -1.1 25 25 Calm 30.22 1024 9 14 0.00 0.00
12:53 pm 12:53 Cloudy 72 22.2 31 -0.6 22 22 Calm 30.19 1022 10 16 0.00 0.00
1:53 pm 13:53 Cloudy 75 23.9 30 -1.1 19 19 Calm 30.17 1022 10 16 0.00 0.00
2:53 pm 14:53 Mostly Sunny 77 25 31 -0.6 18 18 Calm 30.16 1021 10 16 0.00 0.00
3:53 pm 15:53 Partly Cloudy 75 23.9 30 -1.1 19 19 E 6 9 30.16 1021 10 16 0.00 0.00
4:53 pm 16:53 Cloudy 74 23.3 29 -1.7 19 19 SSE 3 6 30.15 1021 10 16 0.00 0.00
5:53 pm 17:53 Cloudy 70 21.1 28 -2.2 21 21 Calm 30.15 1021 10 16 0.00 0.00
6:53 pm 18:53 Cloudy 67 19.4 28 -2.2 23 23 Calm 30.17 1022 10 16 0.00 0.00
7:53 pm 19:53 Cloudy 67 19.4 28 -2.2 23 23 ESE 3 6 30.16 1022 10 16 0.00 0.00
8:53 pm 20:53 Cloudy 66 18.9 28 -2.2 24 24 E 3 6 30.16 1021 10 16 0.00 0.00
9:53 pm 21:53 Mostly Cloudy 64 17.8 28 -2.2 26 26 E 3 6 30.16 1021 10 16 0.00 0.00
10:53 pm 22:53 Mostly Clear 59 15 27 -2.8 29 29 Calm 30.15 1021 10 16 0.00 0.00
11:53 pm 23:53 Clear 56 13.3 30 -1.1 37 37 Calm 30.15 1021 7 11 0.00 0.00

Powered by AerisWeather